Hattiesburg, MS

4:23 AM CST on January 16, 2018 (GMT -0600)
Chain Municipal

Weather History for KHBG - October, 2013

Change the Weather History Date:

Saturday, October 19, 2013

  Actual Average Record
Temperature  
Mean Temperature 64 °F 66 °F  
Max Temperature 72 °F 79 °F 90 °F (1949)
Min Temperature 56 °F 53 °F 31 °F (1948)
Degree Days  
Heating Degree Days 1 3  
Month to date heating degree days 3 27  
Since 1 July heating degree days 3 29  
Cooling Degree Days 0 4  
Month to date cooling degree days 158 101  
Year to date cooling degree days 2367 2328  
Growing Degree Days 16 (Base 50)    
Moisture  
Dew Point 58 °F    
Average Humidity 75    
Maximum Humidity 93    
Minimum Humidity 57    
Precipitation  
Precipitation 0.34 in 0.12 in 1.98 in (1950)
Month to date precipitation 0.71 2.35  
Year to date precipitation 57.92 48.59  
Sea Level Pressure  
Sea Level Pressure 30.00 in    
Wind  
Wind Speed 3 mph (NNW)    
Max Wind Speed 10 mph    
Max Gust Speed 16 mph    
Visibility 9 miles    
Events Rain    
T = Trace of Precipitation, MM = Missing Value Source: NWS Daily Summary

Daily Weather History Graph

Daily Weather History Graph

Search for Another Location

Airport or City:

Trip Planner

Search our weather history database for the weather conditions in past years. The results will help you decide how hot, cold, wet, or windy it might be!

Date:

Astronomy

Oct. 19, 2013 Rise Set
Actual Time 7:02 AM CDT 6:20 PM CDT
Civil Twilight 6:38 AM CDT 6:44 PM CDT
Nautical Twilight 6:10 AM CDT 7:13 PM CDT
Astronomical Twilight 5:41 AM CDT 7:41 PM CDT
Moon 6:53 PM CDT (10/19) 7:36 AM CDT (10/19)
Length of Visible Light 12h 06m
Length of Day
11h 17m
Waxing Gibbous, 99% of the Moon is Illuminated
Oct 19
Waxing Gibbous
Oct 26
Last Quarter
Nov 3
New
Nov 9
First Quarter
Nov 17
Full

Hourly Weather History & Observations

Time (CDT) Temp. Dew Point Humidity Pressure Visibility Wind Dir Wind Speed Gust Speed Precip Events Conditions
12:53 AM 63.0 °F 60.1 °F 90% 29.97 in 10.0 mi Calm Calm - 0.00 in   Clear
1:53 AM 63.0 °F 60.1 °F 90% 29.97 in 10.0 mi Calm Calm - 0.00 in Rain Light Rain
2:53 AM 62.1 °F 60.1 °F 93% 29.95 in 9.0 mi ESE 3.5 mph - 0.02 in   Mostly Cloudy
3:53 AM 62.1 °F 60.1 °F 93% 29.94 in 9.0 mi Calm Calm - 0.00 in   Mostly Cloudy
4:32 AM 62.6 °F 60.8 °F 94% 29.96 in 9.0 mi Calm Calm - N/A   Overcast
4:53 AM 62.1 °F 60.1 °F 93% 29.96 in 10.0 mi North 3.5 mph - 0.00 in   Overcast
5:53 AM 62.1 °F 60.1 °F 93% 30.01 in 4.0 mi Calm Calm - 0.05 in Rain Rain
6:07 AM 62.6 °F 57.2 °F 82% 30.01 in 1.8 mi Calm Calm - 0.07 in Rain Heavy Rain
6:14 AM 60.8 °F 53.6 °F 77% 30.00 in 3.0 mi Calm Calm - 0.10 in Rain Rain
6:53 AM 59.0 °F 55.9 °F 90% 30.02 in 8.0 mi Calm Calm - 0.13 in Rain Light Rain
7:53 AM 59.0 °F 57.0 °F 93% 30.02 in 10.0 mi Calm Calm - 0.02 in Rain Light Rain
8:53 AM 59.0 °F 57.9 °F 96% 29.99 in 4.0 mi East 3.5 mph - 0.09 in Rain Rain
9:53 AM 60.1 °F 57.9 °F 93% 30.03 in 10.0 mi West 3.5 mph - 0.02 in Rain Light Rain
10:19 AM 60.8 °F 57.2 °F 88% 30.03 in 10.0 mi Calm Calm - 0.00 in Rain Light Rain
10:33 AM 62.6 °F 59.0 °F 88% 30.04 in 10.0 mi NW 3.5 mph - 0.00 in Rain Light Rain
10:53 AM 62.1 °F 59.0 °F 90% 30.03 in 10.0 mi Calm Calm - 0.00 in Rain Light Rain
11:01 AM 62.6 °F 60.8 °F 94% 30.02 in 10.0 mi South 3.5 mph - 0.01 in Rain Light Rain
11:53 AM 64.9 °F 61.0 °F 87% 30.01 in 10.0 mi NNW 5.8 mph - 0.01 in   Mostly Cloudy
12:53 PM 68.0 °F 60.1 °F 76% 30.01 in 10.0 mi NNW 5.8 mph - N/A   Clear
1:53 PM 72.0 °F 55.9 °F 57% 29.98 in 10.0 mi North 8.1 mph - N/A   Clear
2:53 PM 70.0 °F 55.9 °F 61% 29.98 in 10.0 mi NNW 6.9 mph - N/A   Clear
3:53 PM 71.1 °F 55.9 °F 59% 29.98 in 10.0 mi NNW 3.5 mph - N/A   Clear
4:53 PM 71.1 °F 57.0 °F 61% 29.97 in 10.0 mi North 5.8 mph - N/A   Clear
5:53 PM 69.1 °F 59.0 °F 70% 29.97 in 10.0 mi Calm Calm - N/A   Clear
6:53 PM 64.0 °F 60.1 °F 87% 29.99 in 10.0 mi Calm Calm - N/A   Clear
7:53 PM 62.1 °F 59.0 °F 90% 30.00 in 10.0 mi Calm Calm - N/A   Clear
8:53 PM 64.0 °F 57.0 °F 78% 30.03 in 10.0 mi NNW 6.9 mph - N/A   Mostly Cloudy
9:53 PM 62.1 °F 55.0 °F 78% 30.04 in 10.0 mi NNW 9.2 mph - N/A   Clear
10:53 PM 60.1 °F 54.0 °F 80% 30.05 in 10.0 mi NNW 6.9 mph - N/A   Clear
11:53 PM 57.0 °F 53.1 °F 87% 30.05 in 10.0 mi NNW 4.6 mph - N/A   Clear